| time (UTC) | temp F | wind direction | speed knots | gust knots | rain 1hr in | rain 24hr in | rain mn in | humidity % | barometer mb |
| 20260906180003 | 77 | 208 | 4.3 | 8.7 | 0.00 | 0.00 | 0.00 | 72 | 1015.1 |
| 20260906175457 | 78 | 136 | 2.6 | 4.3 | 0.00 | 0.00 | 0.00 | 72 | 1015.3 |
| 20260906174955 | 78 | 171 | 1.7 | 6.1 | 0.00 | 0.00 | 0.00 | 72 | 1015.4 |
| 20260906174449 | 78 | 215 | 5.2 | 6.1 | 0.00 | 0.00 | 0.00 | 72 | 1015.2 |
| 20260906173944 | 79 | 209 | 2.6 | 5.2 | 0.00 | 0.00 | 0.00 | 71 | 1015.4 |
| 20260906173439 | 79 | 232 | 3.5 | 6.1 | 0.00 | 0.00 | 0.00 | 71 | 1015.5 |
| 20260906172938 | 78 | 170 | 2.6 | 5.2 | 0.00 | 0.00 | 0.00 | 74 | 1015.4 |
| 20260906172430 | 77 | 167 | 1.7 | 5.2 | 0.00 | 0.00 | 0.00 | 74 | 1015.4 |
| 20260906171925 | 77 | 195 | 2.6 | 7.0 | 0.00 | 0.00 | 0.00 | 73 | 1015.7 |
| 20260906171419 | 76 | 203 | 5.2 | 9.6 | 0.00 | 0.00 | 0.00 | 74 | 1015.4 |
| 20260906170915 | 77 | 201 | 3.5 | 6.1 | 0.00 | 0.00 | 0.00 | 74 | 1015.4 |
| 20260906170411 | 75 | 221 | 3.5 | 7.8 | 0.00 | 0.00 | 0.00 | 75 | 1015.6 |
| 20260906165908 | 77 | 205 | 3.5 | 7.0 | 0.00 | 0.00 | 0.00 | 74 | 1015.6 |
| 20260906165407 | 76 | 125 | 1.7 | 5.2 | 0.00 | 0.00 | 0.00 | 75 | 1015.7 |
| 20260906164902 | 75 | 158 | 0.9 | 6.1 | 0.00 | 0.00 | 0.00 | 76 | 1015.5 |
| 20260906164400 | 75 | 241 | 0.9 | 8.7 | 0.00 | 0.00 | 0.00 | 76 | 1015.6 |
| 20260906163856 | 75 | 201 | 1.7 | 6.1 | 0.00 | 0.00 | 0.00 | 77 | 1015.7 |
| 20260906163347 | 74 | 201 | 2.6 | 7.8 | 0.00 | 0.00 | 0.00 | 79 | 1015.5 |
| 20260906162845 | 74 | 206 | 4.3 | 7.0 | 0.00 | 0.00 | 0.00 | 78 | 1015.7 |
| 20260906162343 | 74 | 195 | 3.5 | 6.1 | 0.00 | 0.00 | 0.00 | 80 | 1015.8 |
| 20260906161838 | 74 | 120 | 2.6 | 6.1 | 0.00 | 0.00 | 0.00 | 79 | 1015.7 |
| 20260906161338 | 74 | 168 | 3.5 | 5.2 | 0.00 | 0.00 | 0.00 | 79 | 1015.8 |
| 20260906160836 | 74 | 189 | 3.5 | 5.2 | 0.00 | 0.00 | 0.00 | 80 | 1015.5 |
| 20260906160330 | 74 | 213 | 2.6 | 7.8 | 0.00 | 0.00 | 0.00 | 81 | 1015.5 |
| 20260906155829 | 74 | 157 | 3.5 | 7.0 | 0.00 | 0.00 | 0.00 | 80 | 1015.8 |
| 20260906155317 | 74 | 209 | 2.6 | 9.6 | 0.00 | 0.00 | 0.00 | 81 | 1015.7 |
| 20260906154814 | 74 | 135 | 0.9 | 7.0 | 0.00 | 0.00 | 0.00 | 82 | 1015.7 |
| 20260906154308 | 73 | 224 | 2.6 | 5.2 | 0.00 | 0.00 | 0.00 | 82 | 1015.6 |
| 20260906153806 | 73 | 189 | 1.7 | 9.6 | 0.00 | 0.00 | 0.00 | 83 | 1015.6 |
| 20260906153300 | 74 | 209 | 2.6 | 3.5 | 0.00 | 0.00 | 0.00 | 83 | 1015.5 |
| 20260906152756 | 73 | 200 | 2.6 | 4.3 | 0.00 | 0.00 | 0.00 | 84 | 1015.6 |
| 20260906152251 | 73 | 180 | 2.6 | 4.3 | 0.00 | 0.00 | 0.00 | 84 | 1015.6 |
| 20260906151749 | 73 | 135 | 2.6 | 3.5 | 0.00 | 0.00 | 0.00 | 84 | 1015.9 |
| 20260906151246 | 73 | 204 | 1.7 | 5.2 | 0.00 | 0.00 | 0.00 | 83 | 1015.9 |
| 20260906150741 | 73 | 162 | 2.6 | 4.3 | 0.00 | 0.00 | 0.00 | 83 | 1016.0 |
| 20260906150237 | 73 | 187 | 1.7 | 4.3 | 0.00 | 0.00 | 0.00 | 85 | 1015.8 |
| 20260906145736 | 72 | 208 | 2.6 | 7.0 | 0.00 | 0.00 | 0.00 | 86 | 1016.0 |
| 20260906145234 | 71 | 202 | 2.6 | 7.0 | 0.00 | 0.00 | 0.00 | 86 | 1015.8 |
| 20260906144730 | 71 | 194 | 2.6 | 7.8 | 0.00 | 0.00 | 0.00 | 87 | 1015.8 |
| 20260906144224 | 72 | 202 | 7.0 | 7.0 | 0.00 | 0.00 | 0.00 | 86 | 1015.8 |
| 20260906143724 | 71 | 153 | 6.1 | 7.0 | 0.00 | 0.00 | 0.00 | 87 | 1015.8 |
| 20260906143221 | 71 | 135 | 4.3 | 9.6 | 0.00 | 0.00 | 0.00 | 88 | 1015.6 |
| 20260906142720 | 71 | 151 | 2.6 | 5.2 | 0.00 | 0.00 | 0.00 | 89 | 1015.6 |
| 20260906142216 | 70 | 219 | 3.5 | 4.3 | 0.00 | 0.00 | 0.00 | 90 | 1015.6 |
| 20260906141715 | 70 | 207 | 3.5 | 4.3 | 0.00 | 0.00 | 0.00 | 92 | 1015.4 |
| 20260906141209 | 70 | 198 | 1.7 | 7.0 | 0.00 | 0.00 | 0.00 | 93 | 1015.4 |
| 20260906140709 | 70 | 158 | 2.6 | 4.3 | 0.00 | 0.00 | 0.00 | 94 | 1015.4 |
| 20260906140204 | 70 | 206 | 3.5 | 5.2 | 0.00 | 0.00 | 0.00 | 94 | 1015.2 |
| 20260906135701 | 69 | 97 | 0.0 | 5.2 | 0.00 | 0.00 | 0.00 | 95 | 1015.2 |
| 20260906135157 | 69 | 189 | 1.7 | 7.0 | 0.00 | 0.00 | 0.00 | 97 | 1015.4 |
| 20260906134652 | 68 | 173 | 1.7 | 7.8 | 0.00 | 0.00 | 0.00 | 99 | 1015.1 |
| 20260906134147 | 68 | 200 | 3.5 | 6.1 | 0.00 | 0.00 | 0.00 | 99 | 1015.4 |
| 20260906133643 | 67 | 156 | 1.7 | 6.1 | 0.00 | 0.00 | 0.00 | 99 | 1015.2 |
| 20260906133138 | 67 | 156 | 1.7 | 6.1 | 0.00 | 0.00 | 0.00 | 99 | 1015.0 |
| 20260906132634 | 67 | 187 | 1.7 | 3.5 | 0.00 | 0.00 | 0.00 | 99 | 1015.1 |
| 20260906132129 | 67 | 235 | 0.0 | 5.2 | 0.00 | 0.00 | 0.00 | 99 | 1015.4 |
| 20260906131625 | 67 | 249 | 0.0 | 5.2 | 0.00 | 0.00 | 0.00 | 99 | 1015.5 |
| 20260906131119 | 66 | 142 | 0.9 | 3.5 | 0.00 | 0.00 | 0.00 | 99 | 1015.3 |
| 20260906130614 | 66 | 160 | 0.9 | 2.6 | 0.00 | 0.00 | 0.00 | 99 | 1015.5 |
| 20260906130109 | 66 | 178 | 1.7 | 3.5 | 0.00 | 0.00 | 0.00 | 99 | 1015.5 |
| 20260906125606 | 66 | 237 | 2.6 | 3.5 | 0.00 | 0.00 | 0.00 | 99 | 1015.2 |
| 20260906125100 | 66 | 180 | 0.9 | 3.5 | 0.00 | 0.00 | 0.00 | 99 | 1015.2 |
| 20260906124556 | 66 | 205 | 3.5 | 4.3 | 0.00 | 0.00 | 0.00 | 99 | 1015.1 |
| 20260906124051 | 66 | 206 | 3.5 | 6.1 | 0.00 | 0.00 | 0.00 | 99 | 1015.2 |
| 20260906123549 | 66 | 204 | 1.7 | 3.5 | 0.00 | 0.00 | 0.00 | 99 | 1015.2 |
| 20260906123045 | 66 | 216 | 0.0 | 3.5 | 0.00 | 0.00 | 0.00 | 99 | 1015.5 |
| 20260906122538 | 66 | 161 | 0.9 | 4.3 | 0.00 | 0.00 | 0.00 | 99 | 1015.0 |
| 20260906122035 | 66 | 133 | 2.6 | 4.3 | 0.00 | 0.00 | 0.00 | 99 | 1015.2 |
| 20260906121531 | 66 | 156 | 3.5 | 4.3 | 0.00 | 0.00 | 0.00 | 99 | 1015.1 |
| 20260906121027 | 66 | 181 | 1.7 | 5.2 | 0.00 | 0.00 | 0.00 | 99 | 1015.1 |
| 20260906120521 | 66 | 198 | 3.5 | 6.1 | 0.00 | 0.00 | 0.00 | 99 | 1014.9 |
| 20260906120019 | 66 | 178 | 2.6 | 4.3 | 0.00 | 0.00 | 0.00 | 99 | 1014.8 |
| 20260906115513 | 66 | 197 | 2.6 | 6.1 | 0.00 | 0.00 | 0.00 | 99 | 1014.8 |
| 20260906115008 | 66 | 207 | 3.5 | 6.1 | 0.00 | 0.00 | 0.00 | 99 | 1014.7 |
| 20260906114503 | 66 | 191 | 1.7 | 6.1 | 0.00 | 0.00 | 0.00 | 99 | 1014.6 |
| 20260906113959 | 66 | 205 | 3.5 | 4.3 | 0.00 | 0.00 | 0.00 | 99 | 1014.9 |
| 20260906113457 | 66 | 201 | 4.3 | 7.0 | 0.00 | 0.00 | 0.00 | 99 | 1014.8 |
| 20260906112953 | 66 | 144 | 1.7 | 4.3 | 0.00 | 0.00 | 0.00 | 99 | 1014.6 |
| 20260906112448 | 66 | 149 | 4.3 | 5.2 | 0.00 | 0.00 | 0.00 | 99 | 1014.7 |
| 20260906111944 | 66 | 156 | 1.7 | 4.3 | 0.00 | 0.00 | 0.00 | 99 | 1014.3 |
| 20260906111443 | 66 | 156 | 0.9 | 4.3 | 0.00 | 0.00 | 0.00 | 99 | 1014.4 |
| 20260906110938 | 66 | 160 | 2.6 | 4.3 | 0.00 | 0.00 | 0.00 | 99 | 1014.3 |
| 20260906110433 | 66 | 216 | 2.6 | 3.5 | 0.00 | 0.00 | 0.00 | 99 | 1014.6 |
| 20260906105932 | 66 | 167 | 0.9 | 4.3 | 0.00 | 0.00 | 0.00 | 99 | 1014.3 |
| 20260906105427 | 66 | 179 | 0.9 | 4.3 | 0.00 | 0.00 | 0.00 | 99 | 1014.1 |
| 20260906104923 | 66 | 183 | 1.7 | 4.3 | 0.00 | 0.00 | 0.00 | 99 | 1013.7 |
| 20260906104422 | 66 | 149 | 0.9 | 2.6 | 0.00 | 0.00 | 0.00 | 99 | 1013.8 |
| 20260906103916 | 66 | 152 | 0.9 | 3.5 | 0.00 | 0.00 | 0.00 | 99 | 1014.0 |
| 20260906103414 | 66 | 133 | 0.9 | 3.5 | 0.00 | 0.00 | 0.00 | 99 | 1013.7 |
| 20260906102910 | 66 | 118 | 0.9 | 3.5 | 0.00 | 0.00 | 0.00 | 99 | 1014.1 |
| 20260906102409 | 66 | 181 | 2.6 | 5.2 | 0.00 | 0.00 | 0.00 | 99 | 1013.9 |
| 20260906101904 | 66 | 136 | 0.0 | 3.5 | 0.00 | 0.00 | 0.00 | 99 | 1014.1 |
| 20260906101359 | 66 | 180 | 1.7 | 3.5 | 0.00 | 0.00 | 0.00 | 99 | 1013.8 |
| 20260906100855 | 66 | 168 | 2.6 | 4.3 | 0.00 | 0.00 | 0.00 | 99 | 1013.8 |
| 20260906100354 | 66 | 114 | 3.5 | 5.2 | 0.00 | 0.00 | 0.00 | 99 | 1013.5 |
| 20260906095849 | 66 | 160 | 1.7 | 3.5 | 0.00 | 0.00 | 0.00 | 99 | 1013.6 |
| 20260906095344 | 66 | 118 | 2.6 | 4.3 | 0.00 | 0.00 | 0.00 | 99 | 1013.9 |
| 20260906094843 | 66 | 130 | 3.5 | 4.3 | 0.00 | 0.00 | 0.00 | 99 | 1013.7 |
| 20260906094339 | 66 | 174 | 0.9 | 2.6 | 0.00 | 0.00 | 0.00 | 99 | 1013.7 |
| 20260906093835 | 66 | 176 | 0.9 | 7.8 | 0.00 | 0.00 | 0.00 | 99 | 1013.6 |
| 20260906093331 | 66 | 142 | 3.5 | 4.3 | 0.00 | 0.00 | 0.00 | 99 | 1013.6 |
| 20260906092825 | 66 | 123 | 1.7 | 5.2 | 0.00 | 0.00 | 0.00 | 99 | 1013.5 |
| 20260906092319 | 66 | 142 | 1.7 | 3.5 | 0.00 | 0.00 | 0.00 | 99 | 1013.6 |
| 20260906091815 | 66 | 159 | 2.6 | 6.1 | 0.00 | 0.00 | 0.00 | 99 | 1013.4 |
| 20260906091312 | 66 | 152 | 1.7 | 5.2 | 0.00 | 0.00 | 0.00 | 99 | 1013.2 |
| 20260906090807 | 66 | 162 | 2.6 | 5.2 | 0.00 | 0.00 | 0.00 | 99 | 1013.3 |
| 20260906090306 | 66 | 166 | 3.5 | 6.1 | 0.00 | 0.00 | 0.00 | 99 | 1013.2 |
| 20260906085806 | 66 | 121 | 1.7 | 4.3 | 0.00 | 0.00 | 0.00 | 99 | 1013.3 |
| 20260906085306 | 66 | 142 | 1.7 | 4.3 | 0.00 | 0.00 | 0.00 | 99 | 1013.5 |
| 20260906084800 | 66 | 180 | 0.0 | 2.6 | 0.00 | 0.00 | 0.00 | 99 | 1013.4 |
| 20260906084300 | 66 | 181 | 1.7 | 2.6 | 0.00 | 0.00 | 0.00 | 99 | 1013.4 |
| 20260906083749 | 66 | 123 | 0.0 | 3.5 | 0.00 | 0.00 | 0.00 | 99 | 1013.6 |
| 20260906083245 | 66 | 102 | 0.9 | 2.6 | 0.00 | 0.00 | 0.00 | 99 | 1013.4 |
| 20260906082739 | 66 | 170 | 2.6 | 3.5 | 0.00 | 0.00 | 0.00 | 99 | 1013.7 |
| 20260906082234 | 66 | 131 | 0.0 | 2.6 | 0.00 | 0.00 | 0.00 | 99 | 1013.6 |
| 20260906081730 | 66 | 143 | 0.9 | 1.7 | 0.00 | 0.00 | 0.00 | 99 | 1013.6 |
| 20260906081225 | 66 | 233 | 0.0 | 2.6 | 0.00 | 0.00 | 0.00 | 99 | 1013.6 |
| 20260906080721 | 66 | 128 | 0.9 | 1.7 | 0.00 | 0.00 | 0.00 | 99 | 1013.6 |
| 20260906080218 | 66 | 188 | 0.0 | 2.6 | 0.00 | 0.00 | 0.00 | 99 | 1013.5 |
| 20260906075712 | 67 | 214 | 0.0 | 2.6 | 0.00 | 0.00 | 0.00 | 99 | 1013.6 |
| 20260906075207 | 67 | 179 | 0.9 | 1.7 | 0.00 | 0.00 | 0.00 | 99 | 1013.7 |
| 20260906074702 | 67 | 192 | 0.0 | 2.6 | 0.00 | 0.00 | 0.00 | 99 | 1013.6 |
| 20260906074201 | 67 | 196 | 0.0 | 1.7 | 0.00 | 0.00 | 0.00 | 99 | 1013.6 |
| 20260906073656 | 67 | 134 | 0.0 | 2.6 | 0.00 | 0.00 | 0.00 | 99 | 1013.6 |
| 20260906073151 | 67 | 184 | 0.9 | 2.6 | 0.00 | 0.00 | 0.00 | 99 | 1013.6 |
| 20260906072646 | 67 | 194 | 1.7 | 2.6 | 0.00 | 0.00 | 0.00 | 99 | 1013.4 |
| 20260906072136 | 68 | 183 | 1.7 | 2.6 | 0.00 | 0.00 | 0.00 | 99 | 1013.5 |
| 20260906071633 | 68 | 161 | 1.7 | 3.5 | 0.00 | 0.00 | 0.00 | 99 | 1013.5 |
| 20260906071132 | 68 | 185 | 0.9 | 2.6 | 0.00 | 0.00 | 0.00 | 99 | 1013.5 |
| 20260906070629 | 68 | 123 | 2.6 | 3.5 | 0.00 | 0.00 | 0.00 | 99 | 1013.7 |
| 20260906070124 | 68 | 137 | 1.7 | 3.5 | 0.00 | 0.00 | 0.00 | 99 | 1013.7 |
| 20260906065624 | 68 | 208 | 1.7 | 2.6 | 0.00 | 0.00 | 0.00 | 99 | 1013.5 |
| 20260906065119 | 68 | 162 | 1.7 | 4.3 | 0.00 | 0.00 | 0.00 | 99 | 1013.7 |
| 20260906064615 | 68 | 157 | 0.0 | 4.3 | 0.00 | 0.00 | 0.00 | 99 | 1013.5 |
| 20260906064109 | 68 | 274 | 0.0 | 3.5 | 0.00 | 0.00 | 0.00 | 99 | 1013.7 |
| 20260906063605 | 68 | 177 | 1.7 | 4.3 | 0.00 | 0.00 | 0.00 | 99 | 1013.8 |
| 20260906063101 | 68 | 116 | 1.7 | 3.5 | 0.00 | 0.00 | 0.00 | 99 | 1014.1 |
| 20260906062557 | 68 | 124 | 1.7 | 4.3 | 0.00 | 0.00 | 0.00 | 99 | 1013.9 |
| 20260906062055 | 68 | 137 | 0.0 | 2.6 | 0.00 | 0.00 | 0.00 | 99 | 1013.8 |
| 20260906061552 | 68 | 117 | 1.7 | 2.6 | 0.00 | 0.00 | 0.00 | 99 | 1013.7 |
| 20260906061051 | 68 | 156 | 0.9 | 3.5 | 0.00 | 0.00 | 0.00 | 99 | 1013.8 |
| 20260906060548 | 68 | 174 | 1.7 | 2.6 | 0.00 | 0.00 | 0.00 | 99 | 1014.1 |
| 20260906060045 | 68 | 122 | 2.6 | 2.6 | 0.00 | 0.00 | 0.00 | 99 | 1013.9 |
| 20260906055541 | 68 | 144 | 1.7 | 2.6 | 0.00 | 0.00 | 0.00 | 99 | 1013.7 |
| 20260906055036 | 68 | 150 | 2.6 | 3.5 | 0.00 | 0.00 | 0.00 | 99 | 1013.8 |
| 20260906054536 | 68 | 147 | 0.0 | 2.6 | 0.00 | 0.00 | 0.00 | 99 | 1013.8 |
| 20260906054031 | 68 | 141 | 0.9 | 2.6 | 0.00 | 0.00 | 0.00 | 99 | 1013.9 |
| 20260906053527 | 68 | 97 | 0.9 | 1.7 | 0.00 | 0.00 | 0.00 | 99 | 1014.0 |
| 20260906053022 | 68 | 48 | 0.0 | 1.7 | 0.00 | 0.00 | 0.00 | 99 | 1014.1 |
| 20260906052518 | 68 | 50 | 0.0 | 2.6 | 0.00 | 0.00 | 0.00 | 99 | 1014.1 |
| 20260906052015 | 68 | 19 | 0.0 | 2.6 | 0.00 | 0.00 | 0.00 | 99 | 1013.9 |
| 20260906051510 | 68 | 50 | 0.0 | 1.7 | 0.00 | 0.00 | 0.00 | 99 | 1013.9 |
| 20260906051006 | 68 | 99 | 0.0 | 1.7 | 0.00 | 0.00 | 0.00 | 99 | 1014.1 |
| 20260906050506 | 68 | 151 | 1.7 | 2.6 | 0.00 | 0.00 | 0.00 | 99 | 1014.1 |
| 20260906050000 | 68 | 166 | 0.0 | 1.7 | 0.00 | 0.00 | 0.00 | 99 | 1014.0 |
| 20260906045459 | 68 | 147 | 0.0 | 1.7 | 0.00 | 0.00 | 0.00 | 99 | 1013.9 |
| 20260906044955 | 68 | 135 | 0.0 | 1.7 | 0.00 | 0.00 | 0.00 | 99 | 1014.1 |
| 20260906044449 | 68 | 32 | 0.9 | 1.7 | 0.00 | 0.00 | 0.00 | 99 | 1014.2 |
| 20260906043940 | 68 | 326 | 0.0 | 1.7 | 0.00 | 0.00 | 0.00 | 98 | 1014.1 |
| 20260906043435 | 68 | 34 | 0.0 | 1.7 | 0.00 | 0.00 | 0.00 | 98 | 1014.1 |
| 20260906042931 | 68 | 20 | 0.9 | 1.7 | 0.00 | 0.00 | 0.00 | 98 | 1013.9 |
| 20260906042430 | 68 | 59 | 0.9 | 1.7 | 0.00 | 0.00 | 0.00 | 98 | 1014.1 |
| 20260906041924 | 68 | 42 | 0.0 | 0.9 | 0.00 | 0.00 | 0.00 | 98 | 1013.9 |
| 20260906041420 | 68 | 129 | 0.0 | 1.7 | 0.00 | 0.00 | 0.00 | 98 | 1013.8 |
| 20260906040915 | 69 | 186 | 0.0 | 1.7 | 0.00 | 0.00 | 0.00 | 98 | 1013.8 |
| 20260906040410 | 69 | 126 | 0.9 | 1.7 | 0.00 | 0.00 | 0.00 | 98 | 1013.8 |
| 20260906035905 | 69 | 142 | 0.0 | 2.6 | 0.00 | 0.00 | 0.00 | 97 | 1014.1 |
| 20260906035401 | 69 | 99 | 0.0 | 1.7 | 0.00 | 0.00 | 0.00 | 97 | 1014.2 |
| 20260906034855 | 69 | 66 | 0.0 | 1.7 | 0.00 | 0.00 | 0.00 | 97 | 1014.2 |
| 20260906034350 | 69 | 89 | 0.0 | 1.7 | 0.00 | 0.00 | 0.00 | 97 | 1014.2 |
| 20260906033846 | 69 | 50 | 1.7 | 2.6 | 0.00 | 0.00 | 0.00 | 97 | 1013.9 |
| 20260906033345 | 69 | 37 | 0.0 | 0.9 | 0.00 | 0.00 | 0.00 | 97 | 1014.0 |
| 20260906032842 | 69 | 44 | 0.0 | 0.9 | 0.00 | 0.00 | 0.00 | 97 | 1013.9 |
| 20260906032337 | 69 | 46 | 0.0 | 0.9 | 0.00 | 0.00 | 0.00 | 97 | 1013.8 |
| 20260906031832 | 69 | 68 | 0.0 | 0.9 | 0.00 | 0.00 | 0.00 | 97 | 1013.7 |
| 20260906031328 | 69 | 230 | 0.0 | 0.9 | 0.00 | 0.00 | 0.00 | 97 | 1013.6 |
| 20260906030827 | 69 | 217 | 0.0 | 0.9 | 0.00 | 0.00 | 0.00 | 97 | 1013.6 |
| 20260906030323 | 69 | 235 | 0.0 | 1.7 | 0.00 | 0.00 | 0.00 | 97 | 1013.8 |
| 20260906025817 | 69 | 315 | 0.0 | 0.9 | 0.00 | 0.00 | 0.00 | 97 | 1013.4 |
| 20260906025311 | 69 | 300 | 0.0 | 0.9 | 0.00 | 0.00 | 0.00 | 97 | 1013.5 |
| 20260906024810 | 69 | 309 | 0.0 | 0.9 | 0.00 | 0.00 | 0.00 | 97 | 1013.5 |
| 20260906024309 | 69 | 170 | 0.0 | 0.9 | 0.00 | 0.00 | 0.00 | 97 | 1013.4 |
| 20260906023805 | 69 | 173 | 0.0 | 0.9 | 0.00 | 0.00 | 0.00 | 97 | 1013.1 |
| 20260906023300 | 69 | 283 | 0.0 | 2.6 | 0.00 | 0.00 | 0.00 | 97 | 1013.4 |
| 20260906022755 | 69 | 34 | 0.0 | 0.9 | 0.00 | 0.00 | 0.00 | 97 | 1013.0 |
| 20260906022251 | 70 | 73 | 0.0 | 1.7 | 0.00 | 0.00 | 0.00 | 97 | 1012.7 |
| 20260906021747 | 70 | 0 | 0.0 | 0.9 | 0.00 | 0.00 | 0.00 | 97 | 1012.9 |
| 20260906021240 | 70 | 140 | 0.0 | 1.7 | 0.00 | 0.00 | 0.00 | 97 | 1012.9 |
| 20260906020735 | 70 | 162 | 0.0 | 1.7 | 0.00 | 0.00 | 0.00 | 97 | 1012.7 |
| 20260906020235 | 70 | 53 | 0.0 | 1.7 | 0.00 | 0.00 | 0.00 | 97 | 1012.6 |
| 20260906015730 | 70 | 230 | 0.0 | 0.0 | 0.00 | 0.00 | 0.00 | 96 | 1012.7 |
| 20260906015228 | 70 | 135 | 0.0 | 1.7 | 0.00 | 0.00 | 0.00 | 96 | 1012.7 |
| 20260906014722 | 70 | 235 | 0.0 | 0.9 | 0.00 | 0.00 | 0.00 | 95 | 1012.5 |
| 20260906014219 | 71 | 315 | 0.0 | 0.9 | 0.00 | 0.00 | 0.00 | 95 | 1012.4 |
| 20260906013715 | 71 | 230 | 0.0 | 0.9 | 0.00 | 0.00 | 0.00 | 95 | 1012.0 |
| 20260906013214 | 71 | 147 | 0.0 | 1.7 | 0.00 | 0.00 | 0.00 | 94 | 1012.3 |
| 20260906012710 | 72 | 31 | 0.0 | 1.7 | 0.00 | 0.00 | 0.00 | 93 | 1012.3 |
| 20260906012204 | 72 | 130 | 0.0 | 1.7 | 0.00 | 0.00 | 0.00 | 93 | 1012.1 |
| 20260906011659 | 72 | 58 | 0.0 | 1.7 | 0.00 | 0.00 | 0.00 | 93 | 1012.1 |
| 20260906011154 | 73 | 157 | 0.0 | 1.7 | 0.00 | 0.00 | 0.00 | 92 | 1012.1 |
| 20260906010650 | 73 | 65 | 0.0 | 1.7 | 0.00 | 0.00 | 0.00 | 92 | 1012.0 |
| 20260906010146 | 73 | 89 | 0.0 | 2.6 | 0.00 | 0.00 | 0.00 | 92 | 1011.7 |
| 20260906005645 | 73 | 199 | 1.7 | 2.6 | 0.00 | 0.00 | 0.00 | 91 | 1011.8 |
| 20260906005144 | 73 | 196 | 0.9 | 2.6 | 0.00 | 0.00 | 0.00 | 91 | 1011.9 |
| 20260906004643 | 74 | 202 | 1.7 | 1.7 | 0.00 | 0.00 | 0.00 | 91 | 1012.0 |
| 20260906004139 | 74 | 224 | 0.9 | 2.6 | 0.00 | 0.00 | 0.00 | 90 | 1011.8 |
| 20260906003634 | 74 | 212 | 1.7 | 2.6 | 0.00 | 0.00 | 0.00 | 90 | 1011.7 |
| 20260906003130 | 75 | 156 | 1.7 | 2.6 | 0.00 | 0.00 | 0.00 | 90 | 1011.7 |
| 20260906002625 | 75 | 203 | 1.7 | 3.5 | 0.00 | 0.00 | 0.00 | 90 | 1011.6 |
| 20260906002119 | 75 | 209 | 1.7 | 2.6 | 0.00 | 0.00 | 0.00 | 89 | 1011.6 |
| 20260906001614 | 75 | 172 | 0.9 | 2.6 | 0.00 | 0.00 | 0.00 | 89 | 1011.7 |
| 20260906001109 | 76 | 75 | 1.7 | 2.6 | 0.00 | 0.00 | 0.00 | 89 | 1011.8 |
| 20260906000605 | 76 | 241 | 0.9 | 2.6 | 0.00 | 0.00 | 0.00 | 89 | 1011.7 |
| 20260906000100 | 76 | 186 | 0.0 | 4.3 | 0.00 | 0.00 | 0.00 | 88 | 1011.5 |
| 20260905235559 | 76 | 159 | 1.7 | 3.5 | 0.00 | 0.00 | 0.00 | 88 | 1011.7 |
| 20260905235054 | 76 | 10 | 0.9 | 1.7 | 0.00 | 0.00 | 0.00 | 88 | 1011.9 |
| 20260905234550 | 76 | 153 | 0.0 | 1.7 | 0.00 | 0.00 | 0.00 | 88 | 1011.6 |
| 20260905234044 | 76 | 218 | 1.7 | 2.6 | 0.00 | 0.00 | 0.00 | 88 | 1011.6 |
| 20260905233539 | 76 | 169 | 1.7 | 2.6 | 0.00 | 0.00 | 0.00 | 87 | 1011.0 |
| 20260905233039 | 76 | 180 | 0.9 | 3.5 | 0.00 | 0.00 | 0.00 | 87 | 1011.5 |
| 20260905232534 | 77 | 96 | 0.0 | 4.3 | 0.00 | 0.00 | 0.00 | 87 | 1011.0 |
| 20260905232030 | 77 | 164 | 1.7 | 2.6 | 0.00 | 0.00 | 0.00 | 87 | 1011.3 |
| 20260905231525 | 77 | 185 | 0.0 | 1.7 | 0.00 | 0.00 | 0.00 | 87 | 1011.2 |
| 20260905231021 | 77 | 111 | 1.7 | 4.3 | 0.00 | 0.00 | 0.00 | 86 | 1011.1 |
| 20260905230520 | 77 | 60 | 0.0 | 8.7 | 0.00 | 0.00 | 0.00 | 86 | 1010.9 |
| 20260905230019 | 77 | 160 | 0.9 | 3.5 | 0.00 | 0.00 | 0.00 | 86 | 1011.0 |
| 20260905225514 | 77 | 109 | 1.7 | 4.3 | 0.00 | 0.00 | 0.00 | 86 | 1010.8 |
| 20260905225009 | 77 | 221 | 0.9 | 4.3 | 0.00 | 0.00 | 0.00 | 86 | 1011.0 |
| 20260905224504 | 77 | 199 | 1.7 | 4.3 | 0.00 | 0.00 | 0.00 | 85 | 1011.0 |
| 20260905224003 | 77 | 7 | 0.9 | 3.5 | 0.00 | 0.00 | 0.00 | 85 | 1011.2 |
| 20260905223501 | 77 | 18 | 0.0 | 2.6 | 0.00 | 0.00 | 0.00 | 85 | 1011.0 |
| 20260905222956 | 77 | 276 | 1.7 | 4.3 | 0.00 | 0.00 | 0.00 | 85 | 1011.1 |
| 20260905222456 | 77 | 168 | 1.7 | 5.2 | 0.00 | 0.00 | 0.00 | 85 | 1011.0 |
| 20260905221951 | 77 | 183 | 1.7 | 5.2 | 0.00 | 0.00 | 0.00 | 84 | 1011.1 |
| 20260905221448 | 77 | 335 | 0.0 | 4.3 | 0.00 | 0.00 | 0.00 | 84 | 1011.3 |
| 20260905220944 | 77 | 17 | 0.9 | 4.3 | 0.00 | 0.00 | 0.00 | 84 | 1011.5 |
| 20260905220440 | 77 | 147 | 1.7 | 4.3 | 0.00 | 0.00 | 0.00 | 84 | 1011.5 |
| 20260905215938 | 77 | 171 | 0.9 | 6.1 | 0.00 | 0.00 | 0.00 | 84 | 1011.6 |
| 20260905215434 | 77 | 29 | 0.0 | 5.2 | 0.00 | 0.00 | 0.00 | 84 | 1011.3 |
| 20260905214931 | 77 | 215 | 0.9 | 5.2 | 0.00 | 0.00 | 0.00 | 84 | 1011.5 |
| 20260905214426 | 77 | 22 | 1.7 | 7.8 | 0.00 | 0.00 | 0.00 | 84 | 1011.7 |
| 20260905213925 | 77 | 149 | 2.6 | 6.1 | 0.00 | 0.00 | 0.00 | 84 | 1011.5 |
| 20260905213421 | 77 | 346 | 0.9 | 9.6 | 0.00 | 0.00 | 0.00 | 85 | 1011.8 |
| 20260905212917 | 77 | 165 | 1.7 | 7.0 | 0.00 | 0.00 | 0.00 | 85 | 1011.6 |
| 20260905212412 | 77 | 147 | 2.6 | 5.2 | 0.00 | 0.00 | 0.00 | 85 | 1011.8 |
| 20260905211910 | 78 | 109 | 1.7 | 7.0 | 0.00 | 0.00 | 0.00 | 84 | 1011.9 |
| 20260905211407 | 78 | 153 | 0.9 | 4.3 | 0.00 | 0.00 | 0.00 | 83 | 1012.0 |
| 20260905210902 | 78 | 77 | 1.7 | 6.1 | 0.00 | 0.00 | 0.00 | 82 | 1012.2 |
| 20260905210357 | 78 | 171 | 1.7 | 4.3 | 0.00 | 0.00 | 0.00 | 82 | 1012.1 |
| 20260905205856 | 78 | 135 | 1.7 | 3.5 | 0.00 | 0.00 | 0.00 | 82 | 1012.0 |
| 20260905205350 | 78 | 327 | 0.0 | 3.5 | 0.00 | 0.00 | 0.00 | 82 | 1012.2 |
| 20260905204844 | 78 | 172 | 1.7 | 4.3 | 0.00 | 0.00 | 0.00 | 82 | 1012.3 |
| 20260905204341 | 78 | 70 | 4.3 | 5.2 | 0.00 | 0.00 | 0.00 | 81 | 1012.4 |
| 20260905203838 | 78 | 86 | 0.0 | 4.3 | 0.00 | 0.00 | 0.00 | 82 | 1012.3 |
| 20260905203335 | 79 | 136 | 1.7 | 4.3 | 0.00 | 0.00 | 0.00 | 81 | 1012.4 |
| 20260905202825 | 79 | 145 | 0.0 | 4.3 | 0.00 | 0.00 | 0.00 | 81 | 1012.6 |
| 20260905202319 | 79 | 103 | 0.0 | 4.3 | 0.00 | 0.00 | 0.00 | 81 | 1012.4 |
| 20260905201815 | 78 | 55 | 1.7 | 3.5 | 0.00 | 0.00 | 0.00 | 82 | 1012.4 |
| 20260905201311 | 78 | 39 | 1.7 | 3.5 | 0.00 | 0.00 | 0.00 | 83 | 1012.5 |
| 20260905200805 | 78 | 61 | 4.3 | 5.2 | 0.00 | 0.00 | 0.00 | 84 | 1012.5 |
| 20260905200301 | 78 | 54 | 1.7 | 5.2 | 0.00 | 0.00 | 0.00 | 83 | 1012.5 |
| 20260905195759 | 78 | 54 | 1.7 | 5.2 | 0.00 | 0.00 | 0.00 | 83 | 1012.6 |
| 20260905195254 | 78 | 77 | 1.7 | 4.3 | 0.00 | 0.00 | 0.00 | 83 | 1012.5 |
| 20260905194749 | 80 | 98 | 0.9 | 3.5 | 0.00 | 0.00 | 0.00 | 81 | 1012.7 |
| 20260905194248 | 80 | 29 | 0.9 | 4.3 | 0.00 | 0.00 | 0.00 | 80 | 1012.6 |
| 20260905193743 | 80 | 159 | 0.0 | 3.5 | 0.00 | 0.00 | 0.00 | 79 | 1012.7 |
| 20260905193237 | 79 | 54 | 1.7 | 4.3 | 0.00 | 0.00 | 0.00 | 82 | 1012.6 |
| 20260905192727 | 80 | 58 | 2.6 | 6.1 | 0.00 | 0.00 | 0.00 | 80 | 1012.5 |
| 20260905192224 | 79 | 116 | 2.6 | 7.8 | 0.00 | 0.00 | 0.00 | 82 | 1012.2 |
| 20260905191723 | 79 | 25 | 5.2 | 7.0 | 0.00 | 0.00 | 0.00 | 81 | 1012.5 |
| 20260905191221 | 79 | 28 | 2.6 | 6.1 | 0.00 | 0.00 | 0.00 | 83 | 1012.4 |
| 20260905190720 | 79 | 49 | 1.7 | 4.3 | 0.00 | 0.00 | 0.00 | 82 | 1012.6 |
| 20260905190219 | 79 | 73 | 1.7 | 7.8 | 0.00 | 0.00 | 0.00 | 82 | 1012.9 |
| 20260905185718 | 80 | 158 | 3.5 | 5.2 | 0.00 | 0.00 | 0.00 | 82 | 1013.2 |
| 20260905185213 | 80 | 174 | 1.7 | 3.5 | 0.00 | 0.00 | 0.00 | 80 | 1012.8 |
| 20260905184713 | 79 | 61 | 0.9 | 2.6 | 0.00 | 0.00 | 0.00 | 81 | 1013.0 |
| 20260905184212 | 77 | 214 | 0.0 | 4.3 | 0.00 | 0.00 | 0.00 | 84 | 1013.2 |
| 20260905183706 | 78 | 186 | 0.9 | 2.6 | 0.00 | 0.00 | 0.00 | 85 | 1013.2 |
| 20260905183202 | 78 | 99 | 0.0 | 1.7 | 0.00 | 0.00 | 0.00 | 85 | 1013.4 |
| 20260905182700 | 77 | 174 | 0.0 | 2.6 | 0.00 | 0.00 | 0.00 | 85 | 1013.5 |
| 20260905182154 | 77 | 173 | 0.9 | 2.6 | 0.00 | 0.00 | 0.00 | 85 | 1013.1 |
| 20260905181650 | 77 | 56 | 3.5 | 4.3 | 0.00 | 0.00 | 0.00 | 85 | 1013.4 |
| 20260905181148 | 77 | 173 | 1.7 | 3.5 | 0.00 | 0.00 | 0.00 | 85 | 1013.4 |
| 20260905180643 | 76 | 113 | 0.0 | 2.6 | 0.00 | 0.00 | 0.00 | 87 | 1013.5 |